Regional Weather Roundup
Issued by NWS

Home | Current Version | Previous Version | Graphics & Text | Print | Product List | Glossary On
Versions: 1 2 3 4 5 6 7 8 9 10 11 12 13 14 15 16 17 18 19 20 21 22 23 24 25 26 27 28 29 30 31 32 33 34 35 36 37 38 39 40 41 42 43 44 45 46 47 48 49 50
000
ASUS43 KOAX 191310
RWRNE

WEATHER ROUNDUP FOR NEBRASKA
NATIONAL WEATHER SERVICE OMAHA NE
800 AM CDT SUN APR 19 2015

NOTES: SATELLITE DATA IS BEING USED TO AUGMENT CLOUD COVER ABOVE
       12000 FEET.
       "FAIR" INDICATES FEW OR NO CLOUDS BELOW 12,000 FEET WITH NO
       SIGNIFICANT WEATHER AND/OR OBSTRUCTIONS TO VISIBILITY.

  * THESE STATIONS DO NOT REPORT WEATHER SUCH AS RAIN...SNOW OR FOG.

NEZ001>004-019>022-054>056-191400-
NEBRASKA PANHANDLE

CITY           SKY/WX    TMP DP  RH WIND       PRES   REMARKS
SCOTTSBLUFF    PTCLDY    38  32  79 NW17      30.12R WCI  28
ALLIANCE       CLEAR     37  31  78 NW15      30.06R WCI  28
CHADRON        CLEAR     35  31  85 NW10      30.11R WCI  27
KIMBALL        PTCLDY    35  29  79 N21G28    30.08R WCI  23
SIDNEY         PTCLDY    38  31  76 N18       30.07R WCI  28
$$

NEZ057>060-069>072-079>082-191400-
SOUTHWEST NEBRASKA

CITY           SKY/WX    TMP DP  RH WIND       PRES   REMARKS
NORTH PLATTE   CLOUDY    45  38  76 N25G33    29.92R
IMPERIAL       CLOUDY    45  37  73 N26G39    29.98R
LEXINGTON      LGT RAIN  48  46  90 N26G36    29.85R
MCCOOK         RAIN      49  45  86 N16G25    29.90R FOG
OGALLALA       CLOUDY    44  35  72 N26G33    30.01R
$$

NEZ005>010-023>029-035>040-094-191400-
NORTH CENTRAL NEBRASKA

CITY           SKY/WX    TMP DP  RH WIND       PRES   REMARKS
VALENTINE      PTSUNNY   43  35  73 NW17      29.98R
AINSWORTH      CLOUDY    44  40  86 N20       29.95R
BROKEN BOW     LGT RAIN  47  41  80 N33G46    29.86R
O`NEILL        CLOUDY    48  44  85 NW28G36   29.87R
ORD            LGT RAIN  48  44  86 N18G30    29.84R
THEDFORD       CLOUDY    44  39  83 N15G22    29.97R
$$

NEZ041-046>049-061>064-073>077-083>087-191400-
SOUTH CENTRAL NEBRASKA

CITY           SKY/WX    TMP DP  RH WIND       PRES   REMARKS
GRAND ISLAND   RAIN      49  46  90 N21       29.83R FOG
AURORA         LGT RAIN  50  50  99 N16       29.82R
HASTINGS       LGT RAIN  50  47  89 N18G25    29.82R
HEBRON         CLOUDY    53  49  89 NW3       29.78S
HOLDREGE       LGT RAIN  48  45  89 N22G29    29.85R
KEARNEY *      CLOUDY    48  45  87 N16       29.85R
YORK           RAIN      50  50 100 N8        29.81R
$$

NEZ011>018-030>034-042>045-191400-
NORTHEAST NEBRASKA

CITY           SKY/WX    TMP DP  RH WIND       PRES   REMARKS
ALBION         CLOUDY    49  44  80 N22G30    29.79S
BLAIR          LGT RAIN  53  51  95 W6        29.74R
COLUMBUS *     CLOUDY    50  43  76 N16G26    29.81R
FREMONT        LGT RAIN  55  52  90 NW10      29.76R
TEKAMAH        CLOUDY    55  53  93 NW12      29.73S
WAYNE          CLOUDY    51  48  92 NW20G31   29.77F
$$

NEZ050>053-065>068-078-088>093-191400-
SOUTHEAST NEBRASKA

CITY           SKY/WX    TMP DP  RH WIND       PRES   REMARKS
LINCOLN        LGT RAIN  54  51  90 NW9       29.77R FOG
OMAHA EPPLEY   RAIN      56  55  97 W9        29.72F FOG
BEATRICE       CLOUDY    54  51  92 NW8       29.76S
FALLS CITY     RAIN      54  52  93 W9        29.72S FOG
NEBRASKA CITY  RAIN      55  55 100 NW14      29.72S
PLATTSMOUTH    DRIZZLE   55  54  95 NW7       29.73S
$$

NEZ044-045-051>053-067-191400-
OMAHA AREA

CITY           SKY/WX    TMP DP  RH WIND       PRES   REMARKS
OMAHA EPPLEY   RAIN      56  55  97 W9        29.72F FOG
BLAIR          LGT RAIN  53  51  95 W6        29.74R
FREMONT        LGT RAIN  55  52  90 NW10      29.76R
MILLARD        RAIN      55  54  95 NW7       29.73S
PLATTSMOUTH    DRIZZLE   55  54  95 NW7       29.73S
WAHOO          RAIN      54  51  90 NW9       29.76R
$$



USA.gov is the U.S. government's official web portal to all federal, state and local government web resources and services.